Regional Weather Roundup
Issued by NWS Cleveland, OH

Home | Current Version | Previous Version | Graphics & Text | Print | Product List | Glossary On
Versions: 1 2 3 4 5 6 7 8 9 10 11 12 13 14 15 16 17 18 19 20 21 22 23 24 25 26 27 28 29 30 31 32 33 34 35 36 37 38 39 40 41 42 43 44 45 46 47 48 49 50
000
ASUS41 KCLE 180812
RWRCLE
OHIO REGIONAL WEATHER ROUNDUP
NATIONAL WEATHER SERVICE WILMINGTON, OH
400 AM EDT WED OCT 18 2017

NOTE: "FAIR" INDICATES FEW OR NO CLOUDS BELOW 12,000 FEET WITH NO
SIGNIFICANT WEATHER AND/OR OBSTRUCTIONS TO VISIBILITY.

OHZ001>008-015>018-024>027-034-035-043-044-180900-
   NORTHWEST OHIO

CITY           SKY/WX    TMP DP  RH WIND       PRES   REMARKS
DEFIANCE       FAIR      46  38  73 SW5       30.23F
FINDLAY        FAIR      43  37  79 S7        30.24F
TOLEDO EXPRESS FAIR      49  41  74 CALM      30.22S
TOLEDO EXEC    FAIR      49  40  71 CALM      30.24S
LIMA           FAIR      43  39  86 S6        30.26S
$$

OHZ009>014-019>023-028>033-038-089-180900-
   NORTHEAST OHIO

CITY           SKY/WX    TMP DP  RH WIND       PRES   REMARKS
CLE-HOPKINS    FAIR      50  39  66 S9        30.28S
CLE-LAKEFRONT  FAIR      52  39  61 S10       30.24F
CUY CO. ARPT   NOT AVBL
LORAIN-ELYRIA  FAIR      43  35  73 S6        30.27S
ASHTABULA      FAIR      47  40  76 S7        30.27S
AKRON-CANTON   FAIR      46  37  71 S6        30.28S
WOOSTER        FAIR      42  39  89 S3        30.28S
MANSFIELD      FAIR      42  38  85 S7        30.27S
YOUNGSTOWN     FAIR      48  39  71 S5        30.28S
$$

OHZ042-051>053-060>062-070>072-077>081-180900-
  SOUTHWEST OHIO

CITY           SKY/WX    TMP DP  RH WIND       PRES   REMARKS
CINC-COVINGTON FAIR      45  43  93 S3        30.27S
CINC-LUNKEN    CLOUDY    40  40 100 NE3       30.30S
HAMILTON       FAIR      37  36  96 CALM      30.29S
DAYTON         FAIR      46  42  86 S6        30.29S
WRIGHT-PAT AFB FAIR      41  40  96 CALM      30.28F
DAYTON GENERAL FAIR      47  40  76 CALM      30.28S
WILMINGTON     FAIR      45  40  82 CALM      30.29S
$$

OHZ036-037-039>041-045>050-054>059-063>069-073>076-082>088-180900-
  CENTRAL AND SOUTHEAST OHIO

CITY           SKY/WX    TMP DP  RH WIND       PRES   REMARKS
COLUMBUS       FAIR      44  42  93 CALM      30.29S
OSU AIRPORT    FAIR      46  43  89 CALM      30.29S
BOLTON FIELD   FAIR      39  38  98 S3        30.29S
RICKENBACK AFB FAIR      41  40  97 CALM      30.29S
NEWARK         FAIR      39  36  89 CALM      30.29F
MARION         FAIR      43  38  82 S6        30.28S
LANCASTER      FAIR      42  40  92 CALM      30.30S
ZANESVILLE     FAIR      41  38  89 CALM      30.30S
NEW PHILLY     FAIR      41  39  93 CALM      30.30F
$$




USA.gov is the U.S. government's official web portal to all federal, state and local government web resources and services.